﻿測定場所 (Monitoring sites),日付 (Measurement date),時間 (Measurement time),線量率 最大値 (max) μGy/h,線量率 最小値 (min) μGy/h,線量率 平均値 (average) μGy/h,
八王子 (Hachioji),2018-03-11,23:01～24:00,0.0338,0.0287,0.0309,
八王子 (Hachioji),2018-03-11,22:01～23:00,0.0333,0.0289,0.0309,
八王子 (Hachioji),2018-03-11,21:01～22:00,0.0325,0.0296,0.0312,
八王子 (Hachioji),2018-03-11,20:01～21:00,0.0331,0.0290,0.0308,
八王子 (Hachioji),2018-03-11,19:01～20:00,0.0326,0.0297,0.0311,
八王子 (Hachioji),2018-03-11,18:01～19:00,0.0339,0.0290,0.0310,
八王子 (Hachioji),2018-03-11,17:01～18:00,0.0333,0.0295,0.0311,
八王子 (Hachioji),2018-03-11,16:01～17:00,0.0336,0.0293,0.0312,
八王子 (Hachioji),2018-03-11,15:01～16:00,0.0325,0.0288,0.0310,
八王子 (Hachioji),2018-03-11,14:01～15:00,0.0325,0.0287,0.0309,
八王子 (Hachioji),2018-03-11,13:01～14:00,0.0332,0.0293,0.0308,
八王子 (Hachioji),2018-03-11,12:01～13:00,0.0339,0.0282,0.0307,
八王子 (Hachioji),2018-03-11,11:01～12:00,0.0338,0.0291,0.0309,
八王子 (Hachioji),2018-03-11,10:01～11:00,0.0340,0.0293,0.0311,
八王子 (Hachioji),2018-03-11,09:01～10:00,0.0324,0.0288,0.0306,
八王子 (Hachioji),2018-03-11,08:01～09:00,0.0331,0.0289,0.0308,
八王子 (Hachioji),2018-03-11,07:01～08:00,0.0319,0.0278,0.0307,
八王子 (Hachioji),2018-03-11,06:01～07:00,0.0339,0.0295,0.0310,
八王子 (Hachioji),2018-03-11,05:01～06:00,0.0330,0.0286,0.0306,
八王子 (Hachioji),2018-03-11,04:01～05:00,0.0333,0.0294,0.0308,
八王子 (Hachioji),2018-03-11,03:01～04:00,0.0331,0.0291,0.0309,
八王子 (Hachioji),2018-03-11,02:01～03:00,0.0333,0.0289,0.0308,
八王子 (Hachioji),2018-03-11,01:01～02:00,0.0327,0.0289,0.0307,
八王子 (Hachioji),2018-03-11,00:01～01:00,0.0336,0.0288,0.0307,
八王子 (Hachioji),2018-03-10,23:01～24:00,0.0333,0.0289,0.0307,
八王子 (Hachioji),2018-03-10,22:01～23:00,0.0322,0.0288,0.0306,
八王子 (Hachioji),2018-03-10,21:01～22:00,0.0324,0.0286,0.0303,
八王子 (Hachioji),2018-03-10,20:01～21:00,0.0334,0.0287,0.0307,
八王子 (Hachioji),2018-03-10,19:01～20:00,0.0329,0.0287,0.0308,
八王子 (Hachioji),2018-03-10,18:01～19:00,0.0339,0.0295,0.0309,
八王子 (Hachioji),2018-03-10,17:01～18:00,0.0333,0.0289,0.0310,
八王子 (Hachioji),2018-03-10,16:01～17:00,0.0332,0.0290,0.0308,
八王子 (Hachioji),2018-03-10,15:01～16:00,0.0330,0.0284,0.0307,
八王子 (Hachioji),2018-03-10,14:01～15:00,0.0332,0.0292,0.0310,
八王子 (Hachioji),2018-03-10,13:01～14:00,0.0328,0.0286,0.0307,
八王子 (Hachioji),2018-03-10,12:01～13:00,0.0334,0.0281,0.0309,
八王子 (Hachioji),2018-03-10,11:01～12:00,0.0330,0.0286,0.0312,
八王子 (Hachioji),2018-03-10,10:01～11:00,0.0333,0.0295,0.0310,
八王子 (Hachioji),2018-03-10,09:01～10:00,0.0329,0.0293,0.0309,
八王子 (Hachioji),2018-03-10,08:01～09:00,0.0327,0.0284,0.0309,
八王子 (Hachioji),2018-03-10,07:01～08:00,0.0338,0.0288,0.0310,
八王子 (Hachioji),2018-03-10,06:01～07:00,0.0335,0.0294,0.0314,
八王子 (Hachioji),2018-03-10,05:01～06:00,0.0347,0.0295,0.0323,
八王子 (Hachioji),2018-03-10,04:01～05:00,0.0398,0.0313,0.0350,
八王子 (Hachioji),2018-03-10,03:01～04:00,0.0473,0.0371,0.0418,
八王子 (Hachioji),2018-03-10,02:01～03:00,0.0568,0.0439,0.0503,
八王子 (Hachioji),2018-03-10,01:01～02:00,0.0507,0.0406,0.0461,
八王子 (Hachioji),2018-03-10,00:01～01:00,0.0570,0.0479,0.0522,
八王子 (Hachioji),2018-03-09,23:01～24:00,0.0527,0.0380,0.0434,
八王子 (Hachioji),2018-03-09,22:01～23:00,0.0431,0.0319,0.0366,
八王子 (Hachioji),2018-03-09,21:01～22:00,0.0359,0.0297,0.0318,
八王子 (Hachioji),2018-03-09,20:01～21:00,0.0335,0.0292,0.0312,
八王子 (Hachioji),2018-03-09,19:01～20:00,0.0327,0.0286,0.0307,
八王子 (Hachioji),2018-03-09,18:01～19:00,0.0325,0.0288,0.0305,
八王子 (Hachioji),2018-03-09,17:01～18:00,0.0324,0.0288,0.0305,
八王子 (Hachioji),2018-03-09,16:01～17:00,0.0319,0.0285,0.0305,
八王子 (Hachioji),2018-03-09,15:01～16:00,0.0324,0.0286,0.0303,
八王子 (Hachioji),2018-03-09,14:01～15:00,0.0331,0.0293,0.0308,
八王子 (Hachioji),2018-03-09,13:01～14:00,0.0330,0.0287,0.0309,
八王子 (Hachioji),2018-03-09,12:01～13:00,0.0330,0.0291,0.0311,
八王子 (Hachioji),2018-03-09,11:01～12:00,0.0337,0.0287,0.0308,
八王子 (Hachioji),2018-03-09,10:01～11:00,0.0335,0.0298,0.0315,
八王子 (Hachioji),2018-03-09,09:01～10:00,0.0356,0.0309,0.0331,
八王子 (Hachioji),2018-03-09,08:01～09:00,0.0363,0.0313,0.0337,
八王子 (Hachioji),2018-03-09,07:01～08:00,0.0409,0.0324,0.0356,
八王子 (Hachioji),2018-03-09,06:01～07:00,0.0439,0.0358,0.0389,
八王子 (Hachioji),2018-03-09,05:01～06:00,0.0413,0.0335,0.0372,
八王子 (Hachioji),2018-03-09,04:01～05:00,0.0450,0.0379,0.0410,
八王子 (Hachioji),2018-03-09,03:01～04:00,0.0431,0.0343,0.0384,
八王子 (Hachioji),2018-03-09,02:01～03:00,0.0406,0.0351,0.0374,
八王子 (Hachioji),2018-03-09,01:01～02:00,0.0431,0.0361,0.0395,
八王子 (Hachioji),2018-03-09,00:01～01:00,0.0474,0.0383,0.0429,
八王子 (Hachioji),2018-03-08,23:01～24:00,0.0474,0.0423,0.0445,
八王子 (Hachioji),2018-03-08,22:01～23:00,0.0485,0.0401,0.0453,
八王子 (Hachioji),2018-03-08,21:01～22:00,0.0486,0.0384,0.0426,
八王子 (Hachioji),2018-03-08,20:01～21:00,0.0443,0.0366,0.0405,
八王子 (Hachioji),2018-03-08,19:01～20:00,0.0446,0.0373,0.0411,
八王子 (Hachioji),2018-03-08,18:01～19:00,0.0449,0.0367,0.0412,
八王子 (Hachioji),2018-03-08,17:01～18:00,0.0475,0.0398,0.0437,
八王子 (Hachioji),2018-03-08,16:01～17:00,0.0482,0.0421,0.0450,
八王子 (Hachioji),2018-03-08,15:01～16:00,0.0520,0.0431,0.0460,
八王子 (Hachioji),2018-03-08,14:01～15:00,0.0518,0.0438,0.0473,
八王子 (Hachioji),2018-03-08,13:01～14:00,0.0493,0.0440,0.0469,
八王子 (Hachioji),2018-03-08,12:01～13:00,0.0501,0.0420,0.0458,
八王子 (Hachioji),2018-03-08,11:01～12:00,0.0518,0.0436,0.0467,
八王子 (Hachioji),2018-03-08,10:01～11:00,0.0499,0.0395,0.0453,
八王子 (Hachioji),2018-03-08,09:01～10:00,0.0457,0.0388,0.0423,
八王子 (Hachioji),2018-03-08,08:01～09:00,0.0429,0.0329,0.0379,
八王子 (Hachioji),2018-03-08,07:01～08:00,0.0413,0.0348,0.0374,
八王子 (Hachioji),2018-03-08,06:01～07:00,0.0373,0.0327,0.0343,
八王子 (Hachioji),2018-03-08,05:01～06:00,0.0365,0.0296,0.0334,
八王子 (Hachioji),2018-03-08,04:01～05:00,0.0341,0.0299,0.0314,
八王子 (Hachioji),2018-03-08,03:01～04:00,0.0348,0.0291,0.0318,
八王子 (Hachioji),2018-03-08,02:01～03:00,0.0341,0.0290,0.0315,
八王子 (Hachioji),2018-03-08,01:01～02:00,0.0340,0.0294,0.0316,
八王子 (Hachioji),2018-03-08,00:01～01:00,0.0345,0.0294,0.0322,
八王子 (Hachioji),2018-03-07,23:01～24:00,0.0334,0.0291,0.0312,
八王子 (Hachioji),2018-03-07,22:01～23:00,0.0323,0.0288,0.0307,
八王子 (Hachioji),2018-03-07,21:01～22:00,0.0322,0.0283,0.0307,
八王子 (Hachioji),2018-03-07,20:01～21:00,0.0347,0.0287,0.0308,
八王子 (Hachioji),2018-03-07,19:01～20:00,0.0326,0.0289,0.0306,
八王子 (Hachioji),2018-03-07,18:01～19:00,0.0326,0.0287,0.0307,
八王子 (Hachioji),2018-03-07,17:01～18:00,0.0328,0.0291,0.0307,
八王子 (Hachioji),2018-03-07,16:01～17:00,0.0331,0.0287,0.0310,
八王子 (Hachioji),2018-03-07,15:01～16:00,0.0332,0.0291,0.0310,
八王子 (Hachioji),2018-03-07,14:01～15:00,0.0327,0.0290,0.0311,
八王子 (Hachioji),2018-03-07,13:01～14:00,0.0334,0.0293,0.0312,
八王子 (Hachioji),2018-03-07,12:01～13:00,0.0337,0.0291,0.0310,
八王子 (Hachioji),2018-03-07,11:01～12:00,0.0331,0.0295,0.0314,
八王子 (Hachioji),2018-03-07,10:01～11:00,0.0329,0.0286,0.0313,
八王子 (Hachioji),2018-03-07,09:01～10:00,0.0332,0.0288,0.0312,
八王子 (Hachioji),2018-03-07,08:01～09:00,0.0341,0.0292,0.0315,
八王子 (Hachioji),2018-03-07,07:01～08:00,0.0333,0.0295,0.0314,
八王子 (Hachioji),2018-03-07,06:01～07:00,0.0337,0.0295,0.0314,
八王子 (Hachioji),2018-03-07,05:01～06:00,0.0332,0.0300,0.0316,
八王子 (Hachioji),2018-03-07,04:01～05:00,0.0329,0.0291,0.0313,
八王子 (Hachioji),2018-03-07,03:01～04:00,0.0333,0.0295,0.0314,
八王子 (Hachioji),2018-03-07,02:01～03:00,0.0335,0.0293,0.0315,
八王子 (Hachioji),2018-03-07,01:01～02:00,0.0336,0.0295,0.0313,
八王子 (Hachioji),2018-03-07,00:01～01:00,0.0330,0.0300,0.0315,
八王子 (Hachioji),2018-03-06,23:01～24:00,0.0335,0.0295,0.0313,
八王子 (Hachioji),2018-03-06,22:01～23:00,0.0331,0.0290,0.0312,
八王子 (Hachioji),2018-03-06,21:01～22:00,0.0325,0.0293,0.0311,
八王子 (Hachioji),2018-03-06,20:01～21:00,0.0335,0.0294,0.0311,
八王子 (Hachioji),2018-03-06,19:01～20:00,0.0328,0.0287,0.0312,
八王子 (Hachioji),2018-03-06,18:01～19:00,0.0335,0.0284,0.0310,
八王子 (Hachioji),2018-03-06,17:01～18:00,0.0334,0.0290,0.0309,
八王子 (Hachioji),2018-03-06,16:01～17:00,0.0325,0.0290,0.0310,
八王子 (Hachioji),2018-03-06,15:01～16:00,0.0333,0.0290,0.0310,
八王子 (Hachioji),2018-03-06,14:01～15:00,0.0326,0.0289,0.0307,
八王子 (Hachioji),2018-03-06,13:01～14:00,0.0321,0.0290,0.0309,
八王子 (Hachioji),2018-03-06,12:01～13:00,0.0328,0.0289,0.0311,
八王子 (Hachioji),2018-03-06,11:01～12:00,0.0335,0.0289,0.0311,
八王子 (Hachioji),2018-03-06,10:01～11:00,0.0341,0.0288,0.0311,
八王子 (Hachioji),2018-03-06,09:01～10:00,0.0333,0.0293,0.0310,
八王子 (Hachioji),2018-03-06,08:01～09:00,0.0334,0.0290,0.0311,
八王子 (Hachioji),2018-03-06,07:01～08:00,0.0330,0.0287,0.0309,
八王子 (Hachioji),2018-03-06,06:01～07:00,0.0327,0.0290,0.0310,
八王子 (Hachioji),2018-03-06,05:01～06:00,0.0339,0.0278,0.0313,
八王子 (Hachioji),2018-03-06,04:01～05:00,0.0344,0.0293,0.0319,
八王子 (Hachioji),2018-03-06,03:01～04:00,0.0347,0.0303,0.0325,
八王子 (Hachioji),2018-03-06,02:01～03:00,0.0396,0.0326,0.0358,
八王子 (Hachioji),2018-03-06,01:01～02:00,0.0439,0.0353,0.0386,
八王子 (Hachioji),2018-03-06,00:01～01:00,0.0450,0.0373,0.0406,
八王子 (Hachioji),2018-03-05,23:01～24:00,0.0442,0.0363,0.0395,
八王子 (Hachioji),2018-03-05,22:01～23:00,0.0447,0.0360,0.0414,
八王子 (Hachioji),2018-03-05,21:01～22:00,0.0437,0.0335,0.0384,
八王子 (Hachioji),2018-03-05,20:01～21:00,0.0362,0.0297,0.0320,
八王子 (Hachioji),2018-03-05,19:01～20:00,0.0364,0.0295,0.0332,
八王子 (Hachioji),2018-03-05,18:01～19:00,0.0416,0.0329,0.0365,
八王子 (Hachioji),2018-03-05,17:01～18:00,0.0422,0.0344,0.0382,
八王子 (Hachioji),2018-03-05,16:01～17:00,0.0380,0.0299,0.0334,
八王子 (Hachioji),2018-03-05,15:01～16:00,0.0363,0.0311,0.0340,
八王子 (Hachioji),2018-03-05,14:01～15:00,0.0385,0.0323,0.0347,
八王子 (Hachioji),2018-03-05,13:01～14:00,0.0357,0.0314,0.0334,
八王子 (Hachioji),2018-03-05,12:01～13:00,0.0343,0.0301,0.0322,
八王子 (Hachioji),2018-03-05,11:01～12:00,0.0342,0.0298,0.0318,
八王子 (Hachioji),2018-03-05,10:01～11:00,0.0330,0.0287,0.0312,
八王子 (Hachioji),2018-03-05,09:01～10:00,0.0333,0.0293,0.0311,
八王子 (Hachioji),2018-03-05,08:01～09:00,0.0342,0.0297,0.0320,
八王子 (Hachioji),2018-03-05,07:01～08:00,0.0336,0.0287,0.0314,
八王子 (Hachioji),2018-03-05,06:01～07:00,0.0339,0.0302,0.0321,
八王子 (Hachioji),2018-03-05,05:01～06:00,0.0339,0.0302,0.0322,
八王子 (Hachioji),2018-03-05,04:01～05:00,0.0337,0.0300,0.0320,
八王子 (Hachioji),2018-03-05,03:01～04:00,0.0334,0.0295,0.0315,
八王子 (Hachioji),2018-03-05,02:01～03:00,0.0328,0.0287,0.0312,
八王子 (Hachioji),2018-03-05,01:01～02:00,0.0331,0.0289,0.0310,
八王子 (Hachioji),2018-03-05,00:01～01:00,0.0333,0.0286,0.0310,
